Data No.,UTC Date,UTC Time,Latitude,Longitude,Course(deg),Temp(degC),Sal(psu)
5783,2010/9/4,21:31:00,20-21.9400N,119-59.8700E,226,29.54,33.3117
5784,2010/9/4,21:32:00,20-21.8200N,119-59.7300E,228,29.538,33.3106
5785,2010/9/4,21:33:00,20-21.7100N,119-59.6000E,227,29.535,33.3116
5786,2010/9/4,21:34:00,20-21.5900N,119-59.4600E,226,29.536,33.3102
5787,2010/9/4,21:35:00,20-21.4800N,119-59.3300E,227,29.541,33.3089
5788,2010/9/4,21:36:00,20-21.3600N,119-59.2000E,227,29.544,33.3074
5789,2010/9/4,21:37:00,20-21.2500N,119-59.0600E,226,29.54,33.306
5790,2010/9/4,21:38:00,20-21.1300N,119-58.9300E,226,29.544,33.3052
5791,2010/9/4,21:39:00,20-21.0100N,119-58.7900E,226,29.546,33.3048
5792,2010/9/4,21:40:00,20-20.8900N,119-58.6600E,228,29.542,33.3036
5793,2010/9/4,21:41:00,20-20.7800N,119-58.5200E,228,29.547,33.304
5794,2010/9/4,21:42:00,20-20.6600N,119-58.3800E,228,29.548,33.3048
5795,2010/9/4,21:43:00,20-20.5400N,119-58.2400E,226,29.545,33.3055
5796,2010/9/4,21:44:00,20-20.4200N,119-58.1100E,226,29.543,33.3079
5797,2010/9/4,21:45:00,20-20.2900N,119-57.9600E,227,29.538,33.3093
5798,2010/9/4,21:46:00,20-20.1700N,119-57.8200E,227,29.536,33.31
5799,2010/9/4,21:47:00,20-20.0700N,119-57.6900E,227,29.528,33.3118
5800,2010/9/4,21:48:00,20-19.9500N,119-57.5500E,228,29.527,33.3123
5801,2010/9/4,21:49:00,20-19.8300N,119-57.4100E,228,29.522,33.3122
5802,2010/9/4,21:50:00,20-19.7100N,119-57.2700E,228,29.529,33.3131
5803,2010/9/4,21:51:00,20-19.5900N,119-57.1400E,225,29.536,33.3134
5804,2010/9/4,21:52:00,20-19.4700N,119-57.0000E,227,29.543,33.3148
5805,2010/9/4,21:53:00,20-19.3400N,119-56.8600E,227,29.547,33.3171
5806,2010/9/4,21:54:00,20-19.2200N,119-56.7200E,227,29.545,33.3205
5807,2010/9/4,21:55:00,20-19.1100N,119-56.5800E,228,29.544,33.322
5808,2010/9/4,21:56:00,20-18.9800N,119-56.4400E,227,29.546,33.3221
5809,2010/9/4,21:57:00,20-18.8600N,119-56.3000E,225,29.546,33.322
5810,2010/9/4,21:58:00,20-18.7300N,119-56.1600E,226,29.543,33.322
5811,2010/9/4,21:59:00,20-18.6100N,119-56.0200E,227,29.548,33.3212
5812,2010/9/4,22:00:00,20-18.4900N,119-55.8800E,227,29.543,33.322
5813,2010/9/4,22:01:00,20-18.3600N,119-55.7400E,228,29.54,33.3202
5814,2010/9/4,22:02:00,20-18.2400N,119-55.6000E,226,29.541,33.3192
5815,2010/9/4,22:03:00,20-18.1200N,119-55.4600E,227,29.535,33.3192
5816,2010/9/4,22:04:00,20-17.9900N,119-55.3200E,226,29.527,33.3176
5817,2010/9/4,22:05:00,20-17.8600N,119-55.1800E,224,29.529,33.3177
5818,2010/9/4,22:06:00,20-17.7400N,119-55.0400E,224,29.528,33.3152
5819,2010/9/4,22:07:00,20-17.6200N,119-54.9000E,226,29.535,33.3153
5820,2010/9/4,22:08:00,20-17.4900N,119-54.7600E,227,29.537,33.3158
5821,2010/9/4,22:09:00,20-17.3700N,119-54.6200E,225,29.537,33.3174
5822,2010/9/4,22:10:00,20-17.2500N,119-54.4900E,226,29.54,33.3176
5823,2010/9/4,22:11:00,20-17.1300N,119-54.3500E,226,29.538,33.3172
5824,2010/9/4,22:12:00,20-17.0100N,119-54.2100E,227,29.537,33.315
5825,2010/9/4,22:13:00,20-16.8900N,119-54.0800E,225,29.536,33.315
5826,2010/9/4,22:14:00,20-16.7700N,119-53.9400E,228,29.537,33.3135
5827,2010/9/4,22:15:00,20-16.6500N,119-53.8000E,225,29.536,33.3109
5828,2010/9/4,22:16:00,20-16.5300N,119-53.6700E,226,29.537,33.3084
5829,2010/9/4,22:17:00,20-16.4100N,119-53.5400E,226,29.535,33.3064
5830,2010/9/4,22:18:00,20-16.2900N,119-53.4100E,225,29.533,33.3055
5831,2010/9/4,22:19:00,20-16.1700N,119-53.2800E,224,29.53,33.305
5832,2010/9/4,22:20:00,20-16.0500N,119-53.1400E,225,29.526,33.3034
5833,2010/9/4,22:21:00,20-15.9200N,119-53.0100E,224,29.53,33.3021
5834,2010/9/4,22:22:00,20-15.8000N,119-52.8700E,226,29.531,33.2983
5835,2010/9/4,22:23:00,20-15.6700N,119-52.7300E,225,29.534,33.2962
5836,2010/9/4,22:24:00,20-15.5400N,119-52.6000E,225,29.529,33.2951
5837,2010/9/4,22:25:00,20-15.4200N,119-52.4500E,225,29.524,33.2974
5838,2010/9/4,22:26:00,20-15.2900N,119-52.3200E,224,29.519,33.2977
5839,2010/9/4,22:27:00,20-15.1600N,119-52.1800E,224,29.521,33.3009
5840,2010/9/4,22:28:00,20-15.0300N,119-52.0400E,224,29.524,33.3018
5841,2010/9/4,22:29:00,20-14.9000N,119-51.9000E,224,29.514,33.3028
5842,2010/9/4,22:30:00,20-14.7600N,119-51.7500E,224,29.504,33.3046
5843,2010/9/4,22:31:00,20-14.6400N,119-51.6200E,225,29.499,33.3086
5844,2010/9/4,22:32:00,20-14.5100N,119-51.4800E,224,29.502,33.3076
5845,2010/9/4,22:33:00,20-14.3800N,119-51.3500E,225,29.507,33.3076
5846,2010/9/4,22:34:00,20-14.2500N,119-51.2100E,225,29.503,33.3093
5847,2010/9/4,22:35:00,20-14.1200N,119-51.0800E,222,29.503,33.3119
5848,2010/9/4,22:36:00,20-13.9900N,119-50.9400E,224,29.501,33.3151
5849,2010/9/4,22:37:00,20-13.8700N,119-50.8100E,225,29.497,33.3183
5850,2010/9/4,22:38:00,20-13.7400N,119-50.6800E,224,29.494,33.3211
5851,2010/9/4,22:39:00,20-13.6200N,119-50.5500E,224,29.494,33.3226
5852,2010/9/4,22:40:00,20-13.5000N,119-50.4200E,226,29.494,33.3241
5853,2010/9/4,22:41:00,20-13.3800N,119-50.2900E,224,29.503,33.3246
5854,2010/9/4,22:42:00,20-13.2500N,119-50.1500E,225,29.504,33.3256
5855,2010/9/4,22:43:00,20-13.1300N,119-50.0200E,225,29.501,33.3263
5856,2010/9/4,22:44:00,20-13.0100N,119-49.8900E,225,29.498,33.3299
5857,2010/9/4,22:45:00,20-12.8900N,119-49.7600E,225,29.494,33.3344
5858,2010/9/4,22:46:00,20-12.7600N,119-49.6200E,224,29.486,33.338
5859,2010/9/4,22:47:00,20-12.6400N,119-49.5000E,223,29.474,33.3402
5860,2010/9/4,22:48:00,20-12.5100N,119-49.3700E,224,29.473,33.3398
5861,2010/9/4,22:49:00,20-12.3900N,119-49.2400E,224,29.471,33.3378
5862,2010/9/4,22:50:00,20-12.2600N,119-49.1000E,223,29.475,33.3367
5863,2010/9/4,22:51:00,20-12.1400N,119-48.9800E,224,29.475,33.3414
5864,2010/9/4,22:52:00,20-12.0200N,119-48.8500E,222,29.48,33.3483
5865,2010/9/4,22:53:00,20-11.8900N,119-48.7200E,224,29.479,33.3506
5866,2010/9/4,22:54:00,20-11.7600N,119-48.5900E,225,29.478,33.3495
5867,2010/9/4,22:55:00,20-11.6400N,119-48.4600E,223,29.477,33.3493
5868,2010/9/4,22:56:00,20-11.5100N,119-48.3300E,222,29.473,33.3484
5869,2010/9/4,22:57:00,20-11.3800N,119-48.2100E,223,29.471,33.3462
5870,2010/9/4,22:58:00,20-11.2600N,119-48.0800E,223,29.476,33.3449
5871,2010/9/4,22:59:00,20-11.1300N,119-47.9500E,222,29.472,33.3427
5872,2010/9/4,23:00:00,20-11.0100N,119-47.8200E,224,29.475,33.3406
5873,2010/9/4,23:01:00,20-10.8800N,119-47.6900E,224,29.479,33.3404
5874,2010/9/4,23:02:00,20-10.7500N,119-47.5600E,224,29.478,33.3387
5875,2010/9/4,23:03:00,20-10.6200N,119-47.4300E,223,29.475,33.3366
5876,2010/9/4,23:04:00,20-10.4900N,119-47.3000E,222,29.476,33.3369
5877,2010/9/4,23:05:00,20-10.3600N,119-47.1700E,223,29.475,33.3382
5878,2010/9/4,23:06:00,20-10.2300N,119-47.0400E,223,29.475,33.337
5879,2010/9/4,23:07:00,20-10.1000N,119-46.9000E,224,29.472,33.3364
5880,2010/9/4,23:08:00,20-09.9700N,119-46.7700E,223,29.468,33.3353
5881,2010/9/4,23:09:00,20-09.8400N,119-46.6400E,223,29.468,33.3328
5882,2010/9/4,23:10:00,20-09.7000N,119-46.5100E,222,29.47,33.3331
5883,2010/9/4,23:11:00,20-09.5700N,119-46.3800E,222,29.468,33.3326
5884,2010/9/4,23:12:00,20-09.4400N,119-46.2500E,223,29.455,33.3322
5885,2010/9/4,23:13:00,20-09.3100N,119-46.1100E,224,29.451,33.333
5886,2010/9/4,23:14:00,20-09.1800N,119-45.9800E,222,29.439,33.3343
5887,2010/9/4,23:15:00,20-09.0500N,119-45.8500E,222,29.435,33.3338
5888,2010/9/4,23:16:00,20-08.9100N,119-45.7200E,222,29.432,33.3348
5889,2010/9/4,23:17:00,20-08.7800N,119-45.5900E,223,29.418,33.3359
5890,2010/9/4,23:18:00,20-08.6400N,119-45.4600E,222,29.41,33.3366
5891,2010/9/4,23:19:00,20-08.5100N,119-45.3300E,223,29.413,33.339
5892,2010/9/4,23:20:00,20-08.3800N,119-45.2000E,221,29.427,33.3388
5893,2010/9/4,23:21:00,20-08.2400N,119-45.0700E,222,29.433,33.3391
5894,2010/9/4,23:22:00,20-08.1100N,119-44.9400E,221,29.442,33.3415
5895,2010/9/4,23:23:00,20-07.9700N,119-44.8000E,222,29.444,33.3436
5896,2010/9/4,23:24:00,20-07.8400N,119-44.6700E,223,29.448,33.3451
5897,2010/9/4,23:25:00,20-07.7100N,119-44.5400E,222,29.444,33.3461
5898,2010/9/4,23:26:00,20-07.5700N,119-44.4200E,221,29.44,33.3465
5899,2010/9/4,23:27:00,20-07.4400N,119-44.2900E,220,29.438,33.3483
5900,2010/9/4,23:28:00,20-07.3000N,119-44.1600E,222,29.441,33.35
5901,2010/9/4,23:29:00,20-07.1700N,119-44.0300E,223,29.46,33.3507
5902,2010/9/4,23:30:00,20-07.0300N,119-43.8900E,221,29.481,33.3516
5903,2010/9/4,23:31:00,20-06.8900N,119-43.7600E,221,29.486,33.3569
5904,2010/9/4,23:32:00,20-06.7500N,119-43.6300E,221,29.486,33.3674
5905,2010/9/4,23:33:00,20-06.6200N,119-43.5000E,221,29.488,33.3767
5906,2010/9/4,23:34:00,20-06.4800N,119-43.3700E,220,29.489,33.3826
5907,2010/9/4,23:35:00,20-06.3400N,119-43.2400E,220,29.489,33.3853
5908,2010/9/4,23:36:00,20-06.1900N,119-43.1000E,222,29.49,33.3857
5909,2010/9/4,23:37:00,20-06.0700N,119-42.9900E,222,29.493,33.3881
5910,2010/9/4,23:38:00,20-05.9400N,119-42.8600E,221,29.492,33.3864
5911,2010/9/4,23:39:00,20-05.8100N,119-42.7300E,222,29.49,33.3878
5912,2010/9/4,23:40:00,20-05.6700N,119-42.6000E,223,29.481,33.3904
5913,2010/9/4,23:41:00,20-05.5300N,119-42.4700E,220,29.479,33.3934
5914,2010/9/4,23:42:00,20-05.4000N,119-42.3400E,221,29.477,33.394
5915,2010/9/4,23:43:00,20-05.2600N,119-42.2200E,221,29.469,33.3957
5916,2010/9/4,23:44:00,20-05.1200N,119-42.0900E,219,29.462,33.3971
5917,2010/9/4,23:45:00,20-04.9900N,119-41.9700E,221,29.455,33.3973
5918,2010/9/4,23:46:00,20-04.8500N,119-41.8400E,221,29.446,33.3974
5919,2010/9/4,23:47:00,20-04.7200N,119-41.7100E,221,29.438,33.396
5920,2010/9/4,23:48:00,20-04.5800N,119-41.5900E,221,29.436,33.3936
5921,2010/9/4,23:49:00,20-04.4500N,119-41.4600E,220,29.435,33.3904
5922,2010/9/4,23:50:00,20-04.3200N,119-41.3400E,221,29.432,33.3899
5923,2010/9/4,23:51:00,20-04.1800N,119-41.2100E,221,29.433,33.3885
5924,2010/9/4,23:52:00,20-04.0500N,119-41.0900E,221,29.431,33.3881
5925,2010/9/4,23:53:00,20-03.9200N,119-40.9700E,219,29.42,33.3876
5926,2010/9/4,23:54:00,20-03.7800N,119-40.8400E,220,29.416,33.3909
5927,2010/9/4,23:55:00,20-03.6500N,119-40.7200E,220,29.415,33.3935
5928,2010/9/4,23:56:00,20-03.5100N,119-40.6000E,221,29.413,33.398
5929,2010/9/4,23:57:00,20-03.3800N,119-40.4700E,222,29.409,33.402
5930,2010/9/4,23:58:00,20-03.2400N,119-40.3400E,220,29.412,33.4069
5931,2010/9/4,23:59:00,20-03.1000N,119-40.2200E,220,29.409,33.4093
5932,2010/9/5,0:00:00,20-02.9700N,119-40.1000E,220,29.405,33.4123
5933,2010/9/5,0:01:00,20-02.8300N,119-39.9700E,219,29.406,33.4159
5934,2010/9/5,0:02:00,20-02.6800N,119-39.8500E,221,29.404,33.421
5935,2010/9/5,0:03:00,20-02.5500N,119-39.7200E,220,29.4,33.4256
5936,2010/9/5,0:04:00,20-02.4100N,119-39.6000E,220,29.401,33.4289
5937,2010/9/5,0:05:00,20-02.2700N,119-39.4700E,220,29.4,33.4359
5938,2010/9/5,0:06:00,20-02.1300N,119-39.3500E,220,29.399,33.4425
5939,2010/9/5,0:07:00,20-01.9900N,119-39.2300E,220,29.405,33.4493
5940,2010/9/5,0:08:00,20-01.8500N,119-39.1000E,220,29.41,33.4549
5941,2010/9/5,0:09:00,20-01.7100N,119-38.9800E,217,29.417,33.4624
5942,2010/9/5,0:10:00,20-01.5700N,119-38.8600E,219,29.424,33.4683
5943,2010/9/5,0:11:00,20-01.4400N,119-38.7400E,221,29.424,33.4776
5944,2010/9/5,0:12:00,20-01.3100N,119-38.6200E,219,29.425,33.4886
5945,2010/9/5,0:13:00,20-01.1700N,119-38.5000E,218,29.434,33.4967
5946,2010/9/5,0:14:00,20-01.0300N,119-38.3900E,219,29.44,33.5041
5947,2010/9/5,0:15:00,20-00.9000N,119-38.2700E,220,29.445,33.5087
5948,2010/9/5,0:16:00,20-00.7600N,119-38.1400E,220,29.446,33.5145
5949,2010/9/5,0:17:00,20-00.6200N,119-38.0200E,220,29.446,33.521
5950,2010/9/5,0:18:00,20-00.4800N,119-37.8900E,219,29.451,33.5246
5951,2010/9/5,0:19:00,20-00.3400N,119-37.7700E,220,29.454,33.5287
5952,2010/9/5,0:20:00,20-00.2000N,119-37.6500E,219,29.457,33.5322
5953,2010/9/5,0:21:00,20-00.0700N,119-37.5200E,219,29.455,33.5344
5954,2010/9/5,0:22:00,19-59.9200N,119-37.4000E,219,29.457,33.5364
5955,2010/9/5,0:23:00,19-59.7800N,119-37.2700E,219,29.456,33.5373
5956,2010/9/5,0:24:00,19-59.6400N,119-37.1500E,219,29.459,33.5383
5957,2010/9/5,0:25:00,19-59.5000N,119-37.0200E,220,29.455,33.5377
5958,2010/9/5,0:26:00,19-59.3600N,119-36.9000E,219,29.457,33.5385
5959,2010/9/5,0:27:00,19-59.2200N,119-36.7800E,218,29.456,33.539
5960,2010/9/5,0:28:00,19-59.0900N,119-36.6600E,218,29.455,33.5351
5961,2010/9/5,0:29:00,19-58.9600N,119-36.5500E,217,29.457,33.5305
5962,2010/9/5,0:30:00,19-58.8400N,119-36.4400E,220,29.453,33.5263
5963,2010/9/5,0:31:00,19-58.7200N,119-36.3200E,221,29.454,33.5236
5964,2010/9/5,0:32:00,19-58.5900N,119-36.2000E,221,29.455,33.5205
5965,2010/9/5,0:33:00,19-58.4600N,119-36.0800E,221,29.458,33.5189
5966,2010/9/5,0:34:00,19-58.3300N,119-35.9600E,220,29.458,33.5176
5967,2010/9/5,0:35:00,19-58.1900N,119-35.8300E,222,29.452,33.5159
5968,2010/9/5,0:36:00,19-58.0600N,119-35.7100E,222,29.452,33.5142
5969,2010/9/5,0:37:00,19-57.9300N,119-35.5800E,221,29.447,33.5113
5970,2010/9/5,0:38:00,19-57.7900N,119-35.4500E,222,29.441,33.5078
5971,2010/9/5,0:39:00,19-57.6600N,119-35.3300E,220,29.439,33.5077
5972,2010/9/5,0:40:00,19-57.5300N,119-35.2000E,222,29.434,33.5085
5973,2010/9/5,0:41:00,19-57.3900N,119-35.0800E,222,29.429,33.5066
5974,2010/9/5,0:42:00,19-57.2600N,119-34.9500E,222,29.424,33.5054
5975,2010/9/5,0:43:00,19-57.1300N,119-34.8200E,222,29.426,33.504
5976,2010/9/5,0:44:00,19-56.9900N,119-34.6900E,222,29.424,33.5027
5977,2010/9/5,0:45:00,19-56.8500N,119-34.5600E,221,29.428,33.499
5978,2010/9/5,0:46:00,19-56.7100N,119-34.4300E,221,29.43,33.4935
5979,2010/9/5,0:47:00,19-56.5800N,119-34.3100E,219,29.437,33.4898
5980,2010/9/5,0:48:00,19-56.4400N,119-34.1800E,220,29.442,33.4858
5981,2010/9/5,0:49:00,19-56.3000N,119-34.0500E,221,29.443,33.4808
5982,2010/9/5,0:50:00,19-56.1700N,119-33.9200E,221,29.44,33.4756
5983,2010/9/5,0:51:00,19-56.0300N,119-33.7900E,221,29.436,33.4726
5984,2010/9/5,0:52:00,19-55.8900N,119-33.6600E,221,29.427,33.4701
5985,2010/9/5,0:53:00,19-55.7500N,119-33.5400E,221,29.403,33.4682
5986,2010/9/5,0:54:00,19-55.6200N,119-33.4100E,221,29.394,33.4662
5987,2010/9/5,0:55:00,19-55.4900N,119-33.3000E,220,29.397,33.4617
5988,2010/9/5,0:56:00,19-55.3500N,119-33.1700E,221,29.397,33.4475
5989,2010/9/5,0:57:00,19-55.2200N,119-33.0500E,221,29.405,33.4293
5990,2010/9/5,0:58:00,19-55.0800N,119-32.9200E,222,29.408,33.4173
5991,2010/9/5,0:59:00,19-54.9500N,119-32.8000E,219,29.413,33.413
5992,2010/9/5,1:00:00,19-54.8100N,119-32.6800E,221,29.421,33.4091
5993,2010/9/5,1:01:00,19-54.6700N,119-32.5400E,221,29.416,33.409
5994,2010/9/5,1:02:00,19-54.5400N,119-32.4200E,222,29.418,33.4113
5995,2010/9/5,1:03:00,19-54.4100N,119-32.2900E,222,29.42,33.4128
5996,2010/9/5,1:04:00,19-54.2800N,119-32.1700E,221,29.414,33.4123
5997,2010/9/5,1:05:00,19-54.1400N,119-32.0400E,221,29.417,33.4117
5998,2010/9/5,1:06:00,19-54.0000N,119-31.9200E,220,29.412,33.4104
5999,2010/9/5,1:07:00,19-53.8600N,119-31.8000E,219,29.334,33.4087
6000,2010/9/5,1:08:00,19-53.7200N,119-31.6700E,221,29.288,33.407
6001,2010/9/5,1:09:00,19-53.5800N,119-31.5500E,220,29.278,33.4049
6002,2010/9/5,1:10:00,19-53.4400N,119-31.4200E,219,29.278,33.3845
6003,2010/9/5,1:11:00,19-53.3100N,119-31.3000E,220,29.284,33.3391
6004,2010/9/5,1:12:00,19-53.1800N,119-31.1800E,218,29.285,33.3026
6005,2010/9/5,1:13:00,19-53.0400N,119-31.0600E,219,29.284,33.2842
6006,2010/9/5,1:14:00,19-52.9100N,119-30.9300E,222,29.285,33.274
6007,2010/9/5,1:15:00,19-52.7800N,119-30.8100E,220,29.293,33.2693
6008,2010/9/5,1:16:00,19-52.6400N,119-30.6800E,220,29.299,33.265
6009,2010/9/5,1:17:00,19-52.5000N,119-30.5500E,221,29.299,33.2629
6010,2010/9/5,1:18:00,19-52.3600N,119-30.4200E,220,29.3,33.2631
6011,2010/9/5,1:19:00,19-52.2100N,119-30.2900E,221,29.296,33.2622
6012,2010/9/5,1:20:00,19-52.0800N,119-30.1500E,221,29.303,33.2626
6013,2010/9/5,1:21:00,19-51.9300N,119-30.0200E,220,29.31,33.2595
6014,2010/9/5,1:22:00,19-51.7900N,119-29.8900E,220,29.317,33.2566
6015,2010/9/5,1:23:00,19-51.6500N,119-29.7600E,222,29.324,33.256
6016,2010/9/5,1:24:00,19-51.5200N,119-29.6400E,222,29.326,33.258
6017,2010/9/5,1:25:00,19-51.3900N,119-29.5100E,222,29.328,33.2593
6018,2010/9/5,1:26:00,19-51.2500N,119-29.3800E,221,29.332,33.259
6019,2010/9/5,1:27:00,19-51.1200N,119-29.2600E,222,29.331,33.261
6020,2010/9/5,1:28:00,19-50.9900N,119-29.1300E,221,29.33,33.2624
6021,2010/9/5,1:29:00,19-50.8600N,119-29.0100E,221,29.329,33.2627
6022,2010/9/5,1:30:00,19-50.7200N,119-28.8800E,222,29.333,33.2612
6023,2010/9/5,1:31:00,19-50.5900N,119-28.7600E,222,29.341,33.2586
6024,2010/9/5,1:32:00,19-50.4600N,119-28.6300E,222,29.345,33.2578
6025,2010/9/5,1:33:00,19-50.3200N,119-28.5000E,221,29.351,33.2579
6026,2010/9/5,1:34:00,19-50.1900N,119-28.3800E,221,29.348,33.2576
6027,2010/9/5,1:35:00,19-50.0700N,119-28.2600E,221,29.347,33.2615
6028,2010/9/5,1:36:00,19-49.9400N,119-28.1400E,220,29.34,33.2627
6029,2010/9/5,1:37:00,19-49.8100N,119-28.0200E,223,29.326,33.2627
6030,2010/9/5,1:38:00,19-49.6900N,119-27.9100E,220,29.319,33.2628
6031,2010/9/5,1:39:00,19-49.5600N,119-27.8000E,221,29.316,33.2601
6032,2010/9/5,1:40:00,19-49.4400N,119-27.6800E,222,29.308,33.2544
6033,2010/9/5,1:41:00,19-49.3200N,119-27.5600E,221,29.295,33.2502
6034,2010/9/5,1:42:00,19-49.1900N,119-27.4400E,221,29.285,33.2482
6035,2010/9/5,1:43:00,19-49.0600N,119-27.3200E,220,29.282,33.2434
6036,2010/9/5,1:44:00,19-48.9400N,119-27.2000E,223,29.272,33.239
6037,2010/9/5,1:45:00,19-48.8100N,119-27.0800E,221,29.273,33.2329
6038,2010/9/5,1:46:00,19-48.6800N,119-26.9600E,221,29.278,33.2283
6039,2010/9/5,1:47:00,19-48.5500N,119-26.8400E,220,29.274,33.2238
6040,2010/9/5,1:48:00,19-48.4300N,119-26.7200E,222,29.279,33.2191
6041,2010/9/5,1:49:00,19-48.3000N,119-26.5900E,222,29.283,33.2179
6042,2010/9/5,1:50:00,19-48.1800N,119-26.4700E,222,29.29,33.2189
6043,2010/9/5,1:51:00,19-48.0500N,119-26.3500E,221,29.283,33.2194
6044,2010/9/5,1:52:00,19-47.9200N,119-26.2200E,222,29.284,33.2215
6045,2010/9/5,1:53:00,19-47.7900N,119-26.1000E,222,29.288,33.2238
6046,2010/9/5,1:54:00,19-47.6600N,119-25.9800E,220,29.286,33.2251
6047,2010/9/5,1:55:00,19-47.5300N,119-25.8600E,221,29.287,33.2267
6048,2010/9/5,1:56:00,19-47.4000N,119-25.7300E,221,29.282,33.2273
6049,2010/9/5,1:57:00,19-47.2700N,119-25.6100E,222,29.288,33.2278
6050,2010/9/5,1:58:00,19-47.1400N,119-25.4900E,220,29.289,33.228
6051,2010/9/5,1:59:00,19-47.0100N,119-25.3700E,221,29.286,33.2243
6052,2010/9/5,2:00:00,19-46.8800N,119-25.2600E,220,29.29,33.2187
6053,2010/9/5,2:01:00,19-46.7600N,119-25.1400E,221,29.3,33.2167
6054,2010/9/5,2:02:00,19-46.6400N,119-25.0200E,222,29.303,33.2125
6055,2010/9/5,2:03:00,19-46.5100N,119-24.8900E,222,29.306,33.2087
6056,2010/9/5,2:04:00,19-46.3800N,119-24.7700E,222,29.312,33.2063
6057,2010/9/5,2:05:00,19-46.2400N,119-24.6400E,220,29.317,33.2061
6058,2010/9/5,2:06:00,19-46.1200N,119-24.5200E,222,29.318,33.2077
6059,2010/9/5,2:07:00,19-45.9800N,119-24.4000E,220,29.324,33.2078
6060,2010/9/5,2:08:00,19-45.8500N,119-24.2700E,222,29.326,33.2094
6061,2010/9/5,2:09:00,19-45.7100N,119-24.1400E,222,29.326,33.2118
6062,2010/9/5,2:10:00,19-45.5800N,119-24.0100E,223,29.33,33.2134
6063,2010/9/5,2:11:00,19-45.4400N,119-23.8700E,221,29.331,33.2169
6064,2010/9/5,2:12:00,19-45.3100N,119-23.7500E,222,29.334,33.216
6065,2010/9/5,2:13:00,19-45.1700N,119-23.6200E,221,29.338,33.2141
6066,2010/9/5,2:14:00,19-45.0400N,119-23.4900E,221,29.338,33.2146
6067,2010/9/5,2:15:00,19-44.9000N,119-23.3600E,222,29.334,33.2153
6068,2010/9/5,2:16:00,19-44.7600N,119-23.2300E,221,29.339,33.2168
6069,2010/9/5,2:17:00,19-44.6200N,119-23.1000E,221,29.341,33.2177
6070,2010/9/5,2:18:00,19-44.4800N,119-22.9700E,222,29.34,33.2196
6071,2010/9/5,2:19:00,19-44.3400N,119-22.8300E,222,29.339,33.2208
6072,2010/9/5,2:20:00,19-44.2000N,119-22.7000E,221,29.339,33.22
6073,2010/9/5,2:21:00,19-44.0600N,119-22.5700E,222,29.336,33.2208
6074,2010/9/5,2:22:00,19-43.9300N,119-22.4300E,221,29.338,33.2188
6075,2010/9/5,2:23:00,19-43.7900N,119-22.3000E,221,29.341,33.2183
6076,2010/9/5,2:24:00,19-43.6500N,119-22.1700E,223,29.343,33.2187
6077,2010/9/5,2:25:00,19-43.5100N,119-22.0400E,222,29.348,33.2184
6078,2010/9/5,2:26:00,19-43.3700N,119-21.9000E,223,29.348,33.2198
6079,2010/9/5,2:27:00,19-43.2400N,119-21.7700E,224,29.349,33.222
6080,2010/9/5,2:28:00,19-43.1000N,119-21.6400E,222,29.358,33.2236
6081,2010/9/5,2:29:00,19-42.9700N,119-21.5100E,223,29.358,33.2255
6082,2010/9/5,2:30:00,19-42.8300N,119-21.3700E,222,29.361,33.2285
6083,2010/9/5,2:31:00,19-42.6900N,119-21.2300E,223,29.363,33.2298
6084,2010/9/5,2:32:00,19-42.5500N,119-21.1000E,222,29.361,33.2318
6085,2010/9/5,2:33:00,19-42.4100N,119-20.9600E,222,29.349,33.234
6086,2010/9/5,2:34:00,19-42.2700N,119-20.8200E,223,29.347,33.2342
6087,2010/9/5,2:35:00,19-42.1300N,119-20.6800E,224,29.345,33.2346
6088,2010/9/5,2:36:00,19-41.9900N,119-20.5400E,222,29.349,33.2324
6089,2010/9/5,2:37:00,19-41.8500N,119-20.4000E,221,29.344,33.2276
6090,2010/9/5,2:38:00,19-41.7000N,119-20.2700E,222,29.346,33.2229
6091,2010/9/5,2:39:00,19-41.5600N,119-20.1300E,222,29.342,33.2205
6092,2010/9/5,2:40:00,19-41.4200N,119-19.9900E,223,29.338,33.2198
6093,2010/9/5,2:41:00,19-41.2800N,119-19.8600E,221,29.332,33.2187
6094,2010/9/5,2:42:00,19-41.1500N,119-19.7300E,223,29.33,33.2172
6095,2010/9/5,2:43:00,19-41.0000N,119-19.5800E,222,29.325,33.2148
6096,2010/9/5,2:44:00,19-40.8800N,119-19.4700E,222,29.327,33.2128
6097,2010/9/5,2:45:00,19-40.7500N,119-19.3400E,223,29.328,33.2086
6098,2010/9/5,2:46:00,19-40.6100N,119-19.2100E,221,29.331,33.2051
6099,2010/9/5,2:47:00,19-40.4700N,119-19.0700E,222,29.325,33.203
6100,2010/9/5,2:48:00,19-40.3400N,119-18.9400E,222,29.33,33.201
6101,2010/9/5,2:49:00,19-40.2000N,119-18.8100E,223,29.326,33.2054
6102,2010/9/5,2:50:00,19-40.0600N,119-18.6700E,222,29.326,33.2083
6103,2010/9/5,2:51:00,19-39.9200N,119-18.5400E,223,29.32,33.2114
6104,2010/9/5,2:52:00,19-39.7700N,119-18.4000E,221,29.314,33.2122
6105,2010/9/5,2:53:00,19-39.6300N,119-18.2600E,221,29.309,33.2137
6106,2010/9/5,2:54:00,19-39.4900N,119-18.1300E,222,29.312,33.2143
6107,2010/9/5,2:55:00,19-39.3500N,119-17.9900E,221,29.298,33.2145
6108,2010/9/5,2:56:00,19-39.1900N,119-17.8500E,221,29.286,33.2164
6109,2010/9/5,2:57:00,19-39.0600N,119-17.7200E,222,29.273,33.2222
6110,2010/9/5,2:58:00,19-38.9100N,119-17.5800E,222,29.258,33.2273
6111,2010/9/5,2:59:00,19-38.7700N,119-17.4400E,222,29.246,33.2349
6112,2010/9/5,3:00:00,19-38.6300N,119-17.3100E,221,29.237,33.2418
6113,2010/9/5,3:01:00,19-38.4800N,119-17.1700E,221,29.233,33.2449
6114,2010/9/5,3:02:00,19-38.3400N,119-17.0300E,222,29.233,33.2472
6115,2010/9/5,3:03:00,19-38.1900N,119-16.8900E,222,29.232,33.2484
6116,2010/9/5,3:04:00,19-38.0400N,119-16.7500E,221,29.234,33.2492
6117,2010/9/5,3:05:00,19-37.9000N,119-16.6100E,222,29.226,33.2498
6118,2010/9/5,3:06:00,19-37.7500N,119-16.4700E,222,29.22,33.2502
6119,2010/9/5,3:07:00,19-37.6100N,119-16.3400E,221,29.218,33.2506
6120,2010/9/5,3:08:00,19-37.4700N,119-16.2100E,221,29.218,33.2514
6121,2010/9/5,3:09:00,19-37.3300N,119-16.0700E,223,29.22,33.2493
6122,2010/9/5,3:10:00,19-37.1900N,119-15.9300E,222,29.222,33.2458
6123,2010/9/5,3:11:00,19-37.0500N,119-15.8000E,222,29.226,33.2443
6124,2010/9/5,3:12:00,19-36.9100N,119-15.6600E,222,29.221,33.2431
6125,2010/9/5,3:13:00,19-36.7600N,119-15.5200E,221,29.224,33.2448
6126,2010/9/5,3:14:00,19-36.6200N,119-15.3800E,221,29.226,33.2454
6127,2010/9/5,3:15:00,19-36.4700N,119-15.2400E,222,29.224,33.2436
6128,2010/9/5,3:16:00,19-36.3200N,119-15.1000E,222,29.214,33.2409
6129,2010/9/5,3:17:00,19-36.1700N,119-14.9500E,222,29.217,33.2388
6130,2010/9/5,3:18:00,19-36.0300N,119-14.8100E,221,29.224,33.2377
6131,2010/9/5,3:19:00,19-35.8800N,119-14.6700E,222,29.229,33.2329
6132,2010/9/5,3:20:00,19-35.7400N,119-14.5400E,221,29.237,33.2287
6133,2010/9/5,3:21:00,19-35.5900N,119-14.4000E,222,29.24,33.2266
6134,2010/9/5,3:22:00,19-35.4500N,119-14.2600E,222,29.216,33.2281
6135,2010/9/5,3:23:00,19-35.3100N,119-14.1200E,222,29.215,33.2305
6136,2010/9/5,3:24:00,19-35.1600N,119-13.9700E,222,29.212,33.232
6137,2010/9/5,3:25:00,19-35.0100N,119-13.8300E,221,29.207,33.2262
6138,2010/9/5,3:26:00,19-34.8600N,119-13.6900E,222,29.196,33.2153